Content
SEND FEEDBACK

Daily
Averages
Monthly
Summary
France

CAEN, FRANCE


Home > Europe > France
Elevation: 220 feet     Latitude: 49 11N     Longitude: 000 27W

WEATHER
 
SELECT A DAY
Number of Records: 222,921;   Date Range: 7/1/96 - 10/19/14
 
SHARE

PRINT THIS DATA

[ ← Previous Day ]
WEATHER ALMANAC - FEBRUARY 21, 2013
[ Next Day → ]
[ °C ]   °F
Weather ElementAverageHighLow
Temperature32.5 °F37.4 °F (1:30 pm)28.4 °F (6:30 am)
Dewpoint22.5 °F28.4 °F (12:30 am)19.4 °F (2:30 pm)
Humidity66.6 %87 % (12:30 am)46 % (1:00 pm)
Barometer30.10 in30.16 in (1:00 am)30.04 in (11:00 pm)
Wind Speed11.2 mph16.1 mph (11:00 am)
Wind Gust23 mph (1:30 pm)
Weather ElementAverage
Visibility6 mi
Wind DirectionENE (71.4 °)

Weather ElementTotal
Precipitation---
Heating Degree Days32.1 (Base 65)
Averaged from 49 records on February 21, 2013
WEATHER CONDITIONS BREAKOUT
WIND DIRECTION BREAKOUT
WEATHER BY HOUR - FEBRUARY 21, 2013
[ °C ]   °F
Local TimeTemperatureDewpointHumidityBarometerVisibilityWind DirectionWind SpeedGust SpeedPrecipitationEventsConditions
12:30 AM32.0 °F28.4 °F87 %30.12 in5.6 miEast (80°)8.1 mph
1:00 AM33.0 °F27.0 °F71 %30.16 in6.0 miENE (70°)9.2 mphClear
1:00 AM32.0 °F26.6 °F80 %30.12 in5.6 miENE (70°)9.2 mph
1:30 AM32.0 °F26.6 °F80 %30.12 in5.6 miEast (80°)9.2 mph
2:00 AM32.0 °F26.6 °F80 %30.12 in5.6 miEast (80°)8.1 mph
2:30 AM32.0 °F26.6 °F80 %30.12 in5.6 miENE (70°)9.2 mph
3:00 AM30.2 °F24.8 °F80 %30.12 in5.6 miENE (70°)8.1 mph
3:30 AM30.2 °F24.8 °F80 %30.12 in6.2 miEast (80°)6.9 mph
4:00 AM30.2 °F24.8 °F80 %30.12 in6.2 miEast (90°)6.9 mph
4:30 AM30.2 °F24.8 °F80 %30.12 in6.2 miEast (80°)6.9 mph
5:00 AM30.2 °F23.0 °F75 %30.12 in6.2 miENE (70°)8.1 mph
5:30 AM30.2 °F23.0 °F75 %30.12 in6.2 miENE (70°)6.9 mph
6:00 AM30.2 °F23.0 °F75 %30.12 in6.2 miENE (60°)8.1 mph
6:30 AM28.4 °F23.0 °F80 %30.12 in5.6 miENE (60°)9.2 mph
7:00 AM29.0 °F23.0 °F69 %30.14 in6.0 miENE (60°)9.2 mph
7:00 AM28.4 °F23.0 °F80 %30.12 in5.0 miENE (60°)9.2 mph
7:30 AM28.4 °F23.0 °F80 %30.12 in4.3 miENE (70°)8.1 mph
8:00 AM28.4 °F23.0 °F80 %30.12 in4.3 miENE (70°)9.2 mph
8:30 AM28.4 °F23.0 °F80 %30.12 in4.3 miEast (80°)10.4 mph
9:00 AM30.2 °F23.0 °F75 %30.12 in4.3 miEast (80°)11.5 mph
9:30 AM30.2 °F23.0 °F75 %30.12 in5.0 miEast (80°)12.7 mph
10:00 AM30.2 °F23.0 °F75 %30.12 in5.6 miEast (80°)12.7 mph
10:30 AM32.0 °F23.0 °F69 %30.12 in6.2 miEast (80°)12.7 mph
11:00 AM32.0 °F21.2 °F64 %30.12 in6.2 miEast (80°)16.1 mph
11:30 AM33.8 °F23.0 °F65 %30.12 in6.2 miENE (70°)12.7 mph
12:00 PM33.8 °F21.2 °F60 %30.12 in6.2 miENE (70°)13.8 mph
12:30 PM35.6 °F21.2 °F56 %30.12 in6.2 miENE (70°)13.8 mphPartly Cloudy
1:00 PM35.0 °F22.0 °F46 %30.14 in7.0 miEast (90°)13.8 mphScattered Clouds
1:00 PM35.6 °F21.2 °F56 %30.12 in6.2 miEast (90°)13.8 mphPartly Cloudy
1:30 PM37.4 °F23.0 °F56 %30.09 in6.2 miEast (90°)11.5 mph23.0 mphPartly Cloudy
2:00 PM37.4 °F21.2 °F52 %30.09 in6.2 miEast (80°)10.4 mphPartly Cloudy
2:30 PM37.4 °F19.4 °F48 %30.09 in6.2 miENE (70°)12.7 mphPartly Cloudy
3:00 PM37.4 °F21.2 °F52 %30.06 in6.2 miENE (70°)12.7 mphPartly Cloudy
4:00 PM37.4 °F21.2 °F52 %30.06 in6.2 miENE (70°)11.5 mph
4:30 PM37.4 °F23.0 °F56 %30.06 in6.2 miENE (60°)11.5 mphPartly Cloudy
5:00 PM35.6 °F21.2 °F56 %30.06 in6.2 miENE (70°)12.7 mphPartly Cloudy
5:30 PM35.6 °F21.2 °F56 %30.06 in6.2 miENE (60°)13.8 mphScattered Clouds
6:00 PM33.8 °F21.2 °F60 %30.06 in6.2 miENE (60°)12.7 mphMostly Cloudy
6:30 PM33.8 °F21.2 °F60 %30.06 in6.2 miENE (60°)11.5 mphPartly Cloudy
7:00 PM34.0 °F21.0 °F46 %30.09 in12.0 miENE (60°)12.7 mphClear
7:00 PM33.8 °F21.2 °F60 %30.06 in6.2 miENE (60°)13.8 mphOvercast
7:30 PM33.8 °F19.4 °F56 %30.06 in6.2 miENE (70°)15.0 mphOvercast
8:00 PM32.0 °F19.4 °F60 %30.06 in6.2 miENE (70°)16.1 mphOvercast
9:00 PM32.0 °F19.4 °F60 %30.06 in6.2 miENE (70°)13.8 mphOvercast
9:30 PM32.0 °F19.4 °F60 %30.06 in6.2 miENE (70°)11.5 mphOvercast
10:00 PM32.0 °F19.4 °F60 %30.06 in6.2 miENE (60°)12.7 mphMostly Cloudy
10:30 PM32.0 °F19.4 °F60 %30.06 in6.2 miENE (70°)15.0 mphOvercast
11:00 PM32.0 °F19.4 °F60 %30.04 in6.2 miENE (60°)10.4 mphOvercast
11:30 PM32.0 °F19.4 °F60 %30.04 in6.2 miENE (60°)11.5 mphOvercast
Hourly data recorded from LFRK, located miles away from Caen, France







STORIES FROM OUR PARTNERS